Regional Weather Roundup
Issued by NWS Cleveland, OH

Home | Current Version | Previous Version | Text Only | Print | Product List | Glossary Off
Versions: 1 2 3 4 5 6 7 8 9 10 11 12 13 14 15 16 17 18 19 20 21 22 23 24 25 26 27 28 29 30 31 32 33 34 35 36 37 38 39 40 41 42 43 44 45 46 47 48 49 50

000
ASUS41 KCLE 251210
RWRCLE
OHIO REGIONAL WEATHER ROUNDUP
NATIONAL WEATHER SERVICE CLEVELAND, OH
800 AM EDT THU MAY 25 2017

NOTE: "FAIR" INDICATES FEW OR NO CLOUDS BELOW 12,000 FEET WITH NO
SIGNIFICANT WEATHER AND/OR OBSTRUCTIONS TO VISIBILITY.

OHZ001>008-015>018-024>027-034-035-043-044-251300-
   NORTHWEST OHIO

CITY           SKY/WX    TMP DP  RH WIND       PRES   REMARKS
DEFIANCE       PTSUNNY   59  57  93 NE9       29.42R
FINDLAY        CLOUDY    62  56  80 E7        29.39S
TOLEDO EXPRESS CLOUDY    59  58  96 NE8       29.43R
TOLEDO EXEC    CLOUDY    61  59  93 N6        29.43S
LIMA           CLOUDY    60  59  96 E7        29.39S
$$

OHZ009>014-019>023-028>033-038-089-251300-
   NORTHEAST OHIO

CITY           SKY/WX    TMP DP  RH WIND       PRES   REMARKS
CLE-HOPKINS    LGT RAIN  62  58  86 E6        29.45S
CLE-LAKEFRONT  CLOUDY    61  56  83 E8        29.43S
CUY CO. ARPT   LGT RAIN  59  55  88 E9        29.46S
LORAIN-ELYRIA    N/A    N/A N/A N/A MISG      29.44R
ASHTABULA      LGT RAIN  57  56  96 SE7       29.49S
AKRON-CANTON   CLOUDY    59  55  87 SE7       29.45S
WOOSTER        CLOUDY    59  57  93 SE12      29.44S
MANSFIELD      CLOUDY    59  57  93 SE10      29.43R
YOUNGSTOWN     LGT RAIN  56  54  93 E13       29.47F
$$

OHZ042-051>053-060>062-070>072-077>081-251300-
  SOUTHWEST OHIO

CITY           SKY/WX    TMP DP  RH WIND       PRES   REMARKS
CINC-COVINGTON RAIN      57  56  96 SW7       29.40R FOG
CINC-LUNKEN    RAIN      58  58 100 S10       29.41S FOG
HAMILTON       LGT RAIN  58  23  26 S5        29.40S
DAYTON         LGT RAIN  59  57  93 S5        29.40R
WRIGHT-PAT AFB PTSUNNY   60  60 100 S6        29.39S
DAYTON GENERAL LGT RAIN  58  57  97 S5        29.39S
WILMINGTON     HVY RAIN  57  57 100 S8        29.41S FOG
$$

OHZ036-037-039>041-045>050-054>059-063>069-073>076-082>088-251300-
  CENTRAL AND SOUTHEAST OHIO

CITY           SKY/WX    TMP DP  RH WIND       PRES   REMARKS
COLUMBUS       RAIN      58  58 100 SE9       29.42R FOG
OSU AIRPORT    CLOUDY    59  58  96 SE8       29.41R FOG
BOLTON FIELD   LGT RAIN  57  57 100 S10       29.42R FOG
RICKENBACK AFB CLOUDY    57  56  97 S14G20    29.42R
NEWARK         LGT RAIN  60  55  83 S9        29.43R
MARION         CLOUDY    60  57  89 S8        29.41S
LANCASTER      CLOUDY    60  55  83 S6        29.44R
ZANESVILLE     CLOUDY    60  55  83 S10       29.45R
NEW PHILLY     NOT AVBL
$$




USA.gov is the U.S. government's official web portal to all federal, state and local government web resources and services.